Location: Newark
(49.3000°N, 9.4667°E)
Time: 08:54:48
(UTC+00:00)

Tiros 1 - Pass Details

Date: 28 May 2019
Orbit: 631 x 664 km, 48.4° (Epoch: 18 June)

Event Time Altitude Azimuth Distance (km) Brightness Sun altitude
Rises 07:17:26 0° 198° (SSW) 2,906 10.4 35.2°
Reaches altitude 10° 07:20:28 10° 178° (S) 2,005 9.9 35.7°
Maximum altitude 07:23:20 16° 139° (SE) 1,626 10.1 36.1°
Drops below altitude 10° 07:26:14 10° 100° (E) 2,020 11.1 36.6°
Sets 07:29:17 0° 80° (E) 2,938 11.4 37.1°
